Location: Pardubice
(50.0330°N, 15.7830°E)
Time: 10:10:26
(UTC+02:00)

ISS - Visible Passes

Search period start: 15 May 2021 00:00
Search period end: 25 May 2021 00:00
Orbit: 417 x 422 km, 51.6° (Epoch: 15 May)

Date Brightness Start Highest point End Pass type
(mag) Time Alt. Az. Time Alt. Az. Time Alt. Az.
15 May -3.6 00:28:29 10° W 00:31:51 70° N 00:35:14 10° ENE visible
15 May -3.7 02:05:26 10° WNW 02:08:50 76° NNE 02:12:13 10° E visible
15 May -3.2 03:42:22 10° W 03:45:31 37° SSW 03:48:39 10° SE visible
15 May -3.0 22:04:43 10° SSW 22:07:45 31° SSE 22:10:47 10° E visible
15 May -3.8 23:40:59 10° WSW 23:44:23 81° NNW 23:47:46 10° ENE visible
16 May -3.5 01:17:58 10° WNW 01:21:20 67° N 01:24:43 10° E visible
16 May -3.7 02:54:51 10° WNW 02:58:09 52° SSW 03:01:27 10° SE visible
16 May -2.5 21:17:46 10° SSW 21:20:26 22° SE 21:23:07 10° E visible
16 May -3.9 22:53:32 10° WSW 22:56:55 82° SSE 23:00:18 10° ENE visible
17 May -3.4 00:30:29 10° W 00:33:50 64° N 00:37:12 10° E visible
17 May -3.9 02:07:22 10° WNW 02:10:44 71° SSW 02:14:06 10° ESE visible
17 May -2.3 03:45:03 11° W 03:47:07 18° SW 03:49:29 10° S visible
17 May -3.8 22:06:09 10° WSW 22:09:28 63° SSE 22:12:49 10° ENE visible
17 May -3.4 23:42:58 10° W 23:46:20 65° N 23:49:42 10° E visible
18 May -3.7 01:19:54 10° WNW 01:22:52 66° WNW 01:22:52 66° WNW visible
18 May -3.4 21:18:50 10° SW 21:22:04 45° SSE 21:25:19 10° ENE visible
18 May -3.5 22:55:27 10° W 22:58:50 70° N 23:02:12 10° ENE visible
19 May -3.7 00:32:25 10° WNW 00:35:48 76° N 00:36:27 54° E visible
19 May -1.1 02:09:21 10° W 02:09:22 10° W 02:09:22 10° W visible
19 May -3.7 22:07:58 10° WSW 22:11:20 81° NNW 22:14:43 10° ENE visible
19 May -3.5 23:44:56 10° WNW 23:48:18 67° N 23:50:16 23° E visible
20 May -2.0 01:21:49 10° WNW 01:23:11 22° W 01:23:11 22° W visible
20 May -3.8 21:20:29 10° WSW 21:23:51 82° SSE 21:27:14 10° ENE visible
20 May -3.3 22:57:26 10° W 23:00:47 64° N 23:04:08 10° E visible
21 May -3.4 00:34:19 10° WNW 00:37:05 54° W 00:37:05 54° W visible
21 May -3.3 22:09:54 10° W 22:13:16 65° N 22:16:38 10° E visible
21 May -3.9 23:46:49 10° WNW 23:50:13 89° SSW 23:51:02 49° ESE visible
22 May -1.0 01:23:54 10° W 01:23:58 10° W 01:23:58 10° W visible
22 May -3.4 21:22:23 10° W 21:25:44 70° N 21:29:07 10° ENE visible
22 May -3.7 22:59:20 10° WNW 23:02:43 76° NNE 23:05:00 19° E visible
23 May -2.1 00:36:16 10° W 00:37:57 24° W 00:37:57 24° W visible
23 May -3.4 22:11:50 10° WNW 22:15:12 67° N 22:18:34 10° E visible
23 May -3.6 23:48:42 10° WNW 23:51:57 51° SSW 23:51:57 51° SSW visible
24 May -3.8 23:01:12 10° WNW 23:04:33 70° SSW 23:05:58 31° SE visible
